[[{"header":{"parameterUnit":"m.s-1","parameterCategory":1,"la1":30.2992,"la2":30.254,"lo1":-89.0895,"lo2":-89.0443,"dy":0.0025,"dx":0.0025,"nx":19,"ny":19,"refTime":"2026-05-01T09:00:00:Z","depth":0,"parameterNumber":2,"parameterNumberName":"U-component_of_WINDS"},"data":[0,0,0,0.0078,0.0076,0.0014,0.0014,-0.0069,-0.007,0,0,0,0,0,0,0,0,0,0,0,0.0095,0.0094,0.0078,0.0076,0.0014,0.0014,-0.0069,-0.007,0,0,0,0,0,0,0,0,0,0,0,0.0095,0.0095,0.0094,0.0076,0.0014,0.0014,-0.0069,-0.0021,0,0,0,0,0,0,0,0,0,0,0.004,0.0055,0.0095,0.0094,0.0076,0.0014,0.0014,-0.0018,-0.0024,-0.0042,0,-0.0057,0,-0.0065,-0.0075,-0.0076,0,0,0,0.0077,0.006,0.0044,0.0094,0.0075,0.0014,0.0042,-0.0021,-0.0027,-0.0049,-0.0058,-0.0061,-0.0066,-0.0076,-0.0076,-0.0178,-0.0178,0,0,0.008,0.0083,0.0048,0.004,0.0051,0.0044,0.004,-0.0025,-0.0036,-0.0059,-0.0063,-0.0067,-0.0076,-0.0077,-0.0177,-0.0178,0,0,0,0.009,0.0085,0.0071,0.0044,0.0033,0.0042,0.0038,-0.0033,-0.0038,-0.0064,-0.0068,-0.0077,-0.0078,-0.0177,-0.0177,-0.0199,0,0,0,0.0092,0.0091,0.0073,0.0074,0.0034,-0.0001,0.0031,-0.0033,-0.004,-0.0068,-0.0077,-0.0079,-0.0176,-0.0177,-0.0197,-0.0211,0,0,0,0.0099,0.0092,0.0082,0.0074,0.0048,0.0,-0.0008,-0.0035,-0.0043,-0.0076,-0.0079,-0.0176,-0.0177,-0.0196,-0.0208,-0.0237,0,0,0,0.0108,0.0063,0.0082,0.003,0.0048,-0.0012,-0.0008,-0.0053,-0.0084,-0.0077,-0.0176,-0.0177,-0.0195,-0.0207,-0.0235,-0.0261,-0.0271,0,0,0.0052,0.0056,0.0026,0.0041,-0.0021,-0.0003,-0.0069,-0.01,-0.0106,-0.0154,-0.0156,-0.0198,-0.0208,-0.0236,-0.0327,-0.0335,0,0,0,0.0009,-0.0013,-0.003,-0.0058,-0.0081,-0.0103,-0.0124,-0.0135,-0.0175,-0.013,-0.0215,-0.0222,-0.0238,-0.0251,-0.0258,-0.0272,-0.0183,-0.0183,-0.0182,-0.0067,-0.0071,-0.0121,-0.0132,-0.0159,-0.0179,-0.0201,-0.022,-0.0217,-0.0237,-0.0252,-0.0306,-0.0321,-0.0326,-0.0341,-0.0264,-0.0265,-0.0265,-0.0265,-0.015,-0.0182,-0.0174,-0.022,-0.0224,-0.0263,-0.0283,-0.0279,-0.0316,-0.0296,-0.0311,-0.0289,-0.0335,-0.0348,-0.0266,-0.0266,-0.0266,-0.0266,-0.0266,-0.0201,-0.0217,-0.0228,-0.0268,-0.0298,-0.0306,-0.0342,-0.0344,-0.0346,-0.036,-0.0376,-0.0376,-0.0377,-0.0367,-0.0368,-0.0368,-0.0368,-0.0368,-0.0368,-0.0251,-0.0263,-0.0292,-0.0319,-0.0336,-0.0359,-0.0377,-0.0394,-0.0414,-0.0413,-0.0413,-0.0408,-0.0338,-0.0321,-0.0371,-0.0371,-0.037,-0.037,-0.037,-0.0336,-0.0316,-0.0362,-0.0379,-0.0409,-0.0438,-0.0439,-0.0473,-0.0488,-0.0505,-0.0496,-0.0443,-0.044,-0.0435,-0.0421,-0.0494,-0.0494,-0.0494,-0.0494,-0.0381,-0.0378,-0.0424,-0.0451,-0.0477,-0.0481,-0.0532,-0.0546,-0.0557,-0.0566,-0.0555,-0.0536,-0.053,-0.0531,-0.0523,-0.0511,-0.0605,-0.0605,-0.0606,-0.0433,-0.0433,-0.0476,-0.0485,-0.0509,-0.0529,-0.0577,-0.0608,-0.0617,-0.061,-0.0573,-0.0569,-0.0538,-0.0528,-0.0523,-0.0511,-0.0488,0,0]},{"header":{"parameterUnit":"m.s-1","parameterCategory":1,"la1":30.2992,"la2":30.254,"lo1":-89.0895,"lo2":-89.0443,"dy":0.0025,"dx":0.0025,"nx":19,"ny":19,"refTime":"2026-05-01T09:00:00:Z","depth":0,"parameterNumber":3,"parameterNumberName":"V-component_of_WINDS"},"data":[0,0,0,-7.2614,-7.2618,-7.2805,-7.2805,-7.3058,-7.306,0,0,0,0,0,0,0,0,0,0,0,-7.2571,-7.2573,-7.2614,-7.2619,-7.2805,-7.2806,-7.3057,-7.306,0,0,0,0,0,0,0,0,0,0,0,-7.257,-7.2572,-7.2575,-7.262,-7.2805,-7.2806,-7.3057,-7.291,0,0,0,0,0,0,0,0,0,0,-7.2727,-7.2699,-7.2572,-7.2575,-7.2621,-7.2805,-7.2806,-7.2903,-7.292,-7.298,0,-7.3041,0,-7.3055,-7.3078,-7.3079,0,0,0,-7.2609,-7.2686,-7.2725,-7.2576,-7.2623,-7.2804,-7.2718,-7.2912,-7.2931,-7.3002,-7.3044,-7.3053,-7.3059,-7.308,-7.3081,-7.3473,-7.3475,0,0,-7.2599,-7.261,-7.2713,-7.2738,-7.2714,-7.2712,-7.2724,-7.2923,-7.2968,-7.3045,-7.3059,-7.3063,-7.3082,-7.3084,-7.3471,-7.3474,0,0,0,-7.2576,-7.2603,-7.2638,-7.2728,-7.2761,-7.2718,-7.2731,-7.2959,-7.297,-7.3061,-7.3066,-7.3083,-7.3087,-7.3468,-7.3472,-7.3597,0,0,0,-7.2569,-7.259,-7.2634,-7.2642,-7.2758,-7.2863,-7.2764,-7.2956,-7.2978,-7.3065,-7.3084,-7.3089,-7.3466,-7.347,-7.3588,-7.3654,0,0,0,-7.2554,-7.2588,-7.2619,-7.2643,-7.2724,-7.286,-7.2881,-7.296,-7.2982,-7.3079,-7.309,-7.3464,-7.3469,-7.358,-7.3641,-7.376,0,0,0,-7.2541,-7.2727,-7.2621,-7.283,-7.2722,-7.2937,-7.288,-7.3039,-7.3137,-7.3085,-7.3466,-7.3471,-7.3578,-7.3633,-7.3752,-7.3863,-7.3911,0,0,-7.2781,-7.2756,-7.2877,-7.2789,-7.3026,-7.2907,-7.3161,-7.324,-7.3237,-7.3393,-7.3403,-7.3591,-7.364,-7.3758,-7.4173,-7.4211,0,0,0,-7.2957,-7.3045,-7.3105,-7.3201,-7.3268,-7.3329,-7.3367,-7.3396,-7.3529,-7.3321,-7.3666,-7.3695,-7.3764,-7.3816,-7.3849,-7.3907,-7.3496,-7.3496,-7.3495,-7.3312,-7.3301,-7.3501,-7.3513,-7.3606,-7.3645,-7.3719,-7.3764,-7.3723,-7.3805,-7.3851,-7.4105,-7.4167,-7.4191,-7.4252,-7.3909,-7.391,-7.391,-7.391,-7.3662,-7.3784,-7.3728,-7.3902,-7.3888,-7.4033,-7.4076,-7.4043,-7.4174,-7.4069,-7.4129,-7.4015,-7.4233,-7.4285,-7.392,-7.3918,-7.3917,-7.3916,-7.3915,-7.3893,-7.3949,-7.3983,-7.4121,-7.4228,-7.4231,-7.4361,-7.4343,-7.4326,-7.4386,-7.4432,-7.443,-7.4425,-7.4409,-7.441,-7.4411,-7.4412,-7.4413,-7.4413,-7.4119,-7.4153,-7.4266,-7.4353,-7.4412,-7.4487,-7.4527,-7.4584,-7.4641,-7.4617,-7.4618,-7.4569,-7.4257,-7.4179,-7.4427,-7.4424,-7.4422,-7.4421,-7.442,-7.4478,-7.4394,-7.4568,-7.4628,-7.4727,-7.4834,-7.481,-7.4927,-7.497,-7.5034,-7.4973,-7.4746,-7.4717,-7.4691,-7.4627,-7.4975,-7.4975,-7.4975,-7.4975,-7.4672,-7.4657,-7.4831,-7.4928,-7.502,-7.5016,-7.521,-7.5243,-7.5262,-7.5288,-7.5235,-7.5147,-7.5122,-7.5108,-7.5074,-7.5013,-7.5452,-7.5452,-7.5453,-7.4892,-7.4885,-7.5056,-7.5077,-7.5153,-7.5217,-7.5399,-7.551,-7.5514,-7.5472,-7.5308,-7.5287,-7.5146,-7.5101,-7.5054,-7.5001,-7.4889,0,0]}]]